Regional Weather Roundup
Issued by NWS

Home | Current Version | Previous Version | Text Only | Print | Product List | Glossary On
Versions: 1 2 3 4 5 6 7 8 9 10 11 12 13 14 15 16 17 18 19 20 21 22 23 24 25 26 27 28 29 30 31 32 33 34 35 36 37 38 39 40 41 42 43 44 45 46 47 48 49 50
000
ASUS44 KEWX 061012
RWRTX
SOUTH TEXAS REGIONAL WEATHER ROUNDUP
NATIONAL WEATHER SERVICE AUSTIN/SAN ANTONIO TX
400 AM CST TUE DEC 06 2016

NOTE: "FAIR" INDICATED FEW OR NO CLOUDS BELOW 12,000 FEET WITH NO
SIGNIFICANT WEATHER AND/OR OBSTRUCTIONS TO VISIBILITY.

* - THESE STATIONS ARE NOT NWS OR FAA STATIONS...AND ARE NOT SUBJECT
    TO NWS AND FAA QUALITY CONTROL.

TXZ171-172-183>190-061100-
TEXAS HILL COUNTRY AND EDWARDS PLATEAU

CITY           SKY/WX    TMP DP  RH WIND       PRES   REMARKS
JUNCTION       CLEAR     38  38 100 CALM      29.83R
*LLANO         CLEAR     46  46 100 CALM      29.81S
BURNET         CLEAR     42  40  92 CALM      29.79S
*HORSESHOE BAY CLEAR     46  45  97 CALM      29.79R FOG
*KERRVILLE     CLEAR     36  35  98 N5        29.84R WCI  32
*FREDERICKSBRG CLEAR     46  44  93 W7        29.82R WCI  42
*ROCKSPRINGS   CLEAR     48  45  87 W7        29.87  WCI  45
*BOERNE STAGE  CLEAR     46  45  93 CALM      29.84F
*CASTROVILLE   CLEAR     43  43  99 NW5       29.86F WCI  40
HONDO          CLEAR     42  39  89 CALM      29.85S
*UVALDE        CLEAR     39  39  99 CALM      29.87R FOG
DEL RIO        CLEAR     40  40 100 NW5       29.85R WCI  37
LAUGHLIN AFB   CLEAR     41  34  75 N8        29.84S WCI  36
CARRIZO SPRGS  CLEAR     50  48  93 CALM      29.85R
*EAGLE PASS    NOT AVBL
$$

TXZ173-191>194-202-209-217>225-228-061100-
CENTRAL AND SOUTH CENTRAL TEXAS

CITY           SKY/WX    TMP DP  RH WIND       PRES   REMARKS
GEORGETOWN     CLEAR     48  45  87 S5        29.77R WCI  46
AUSTIN/BERGSTM CLEAR     47  47 100 SW7       29.79F WCI  44
AUSTIN/MABRY   CLEAR     44  44 100 CALM      29.81R
*AUSTIN/EXEC   CLEAR     46  46 100 S8        29.80R WCI  42
*LAGO VISTA    CLEAR     49  47  93 SW12G17   29.78R WCI  44
SAN MARCOS     CLEAR     46  45  93 SW6       29.83S WCI  43
NEW BRAUNFELS  CLEAR     48  45  89 W6        29.81F WCI  45
RANDOLPH AFB   CLEAR     49  49  99 SW9       29.83F WCI  45
PT SAN ANTONIO CLEAR     41  41 100 CALM      29.82S
SAN ANTONIO    CLEAR     44  43  96 CALM      29.84F
STINSON FIELD  CLEAR     43  41  93 CALM      29.83S FOG
*PLEASANTON    CLEAR     43  42  98 NW3       29.86S FOG
*LA GRANGE     CLEAR     49  48  97 CALM      29.80F
*GIDDINGS      CLEAR     46  46  98 SW6       29.84S WCI  43
*GONZALES      CLEAR     47  47 100 CALM      29.83S
$$

TXZ163>164-176>182-195>201-210>213-226-227-235-061100-
SOUTHEAST TEXAS

CITY           SKY/WX    TMP DP  RH WIND       PRES   REMARKS
COLLEGE STN    PTCLDY    49  49 100 S6        29.80S WCI  46
*BRYAN         CLOUDY    50  50 100 S6        29.81F FOG     WCI  48
*CALDWELL      NOT AVBL
*CROCKETT      CLOUDY    48  48 100 SW6       29.83R WCI  46
*BRENHAM         N/A     49  49  99 CALM      29.82F FOG
HUNTSVILLE     CLOUDY    51  49  92 S7        29.81S
CONROE         CLOUDY    51  50  96 SW3       29.83R
HOUSTON BUSH   PTCLDY    50  49  96 CALM      29.83F
HOUSTON HOBBY  MOCLDY    51  50  96 SW6       29.84S
*HOUSTON SW AP FOG       47  47  98 CALM      29.85F VSB 1/4
PEARLAND       FOG       51  49  92 VRB3      29.85F VSB 3/4
HOUSTON HOOKS  FOG       50  50 100 CALM      29.82F VSB 3/4
ELLINGTON FLD  PTCLDY    59  59 100 W3        29.86S
SUGAR LAND     CLOUDY    50  50 100 SW5       29.84S FOG     WCI  48
*HOUSTON EXEC  FOG       48  48 100 SW9       29.85S VSB 1/4 WCI  44
*CLEVELAND MUN CLOUDY    51  50  95 SW5       29.84S
*WHARTON       CLEAR     46  46  98 CALM      29.85S FOG
*COLUMBUS      FAIR      46  44  94 CALM      29.84F
*EAGLE LAKE    SUNNY     50  50  99 SW3       29.83F
$$

TXZ214>216-236>238-061100-
THE UPPER TEXAS COAST

CITY           SKY/WX    TMP DP  RH WIND       PRES   REMARKS
*ORANGE        CLOUDY   N/A N/A N/A W3        29.86R
PORT ARTHUR    PTCLDY    51  49  92 CALM      29.83F
GALVESTON      CLEAR     53  51  93 W6        29.85F
ANGLETON       CLEAR     50  48  93 SW3       29.85S
*BAY CITY      FOG       47  47 100 CALM      29.85S VSB 3/4
PALACIOS       CLEAR     50  50 100 W6        29.85R WCI  48
$$

TXZ229>234-239>247-061100-
TEXAS COASTAL BEND AND RIO GRANDE PLAINS

CITY           SKY/WX    TMP DP  RH WIND       PRES   REMARKS
VICTORIA       CLEAR     45  45 100 SW3       29.85R
*BEEVILLE      CLEAR     43  43 100 CALM      29.85S
ROCKPORT         N/A    N/A N/A N/A MISG      29.86R
*PORT ARANSAS  CLEAR     58  54  87 CALM      29.86S
*PORT LAVACA   CLEAR     48  48 100 SW3       29.85S FOG
*INGLESIDE     PTCLDY    54  52  92 W5        29.85F
CORPUS CHRISTI PTCLDY    50  49  96 SW3       29.86R
CORPUS NAS     CLEAR     49  32  52 SW7       29.85S WCI  46
*ROBSTOWN      PTCLDY    51  51 100 CALM      29.86S
ALICE          CLEAR     48  47  96 CALM      29.85R
KINGSVILLE NAS CLEAR     47  47 100 SE9       29.86R WCI  43
COTULLA        CLEAR     49  45  86 CALM      29.85S
LAREDO         CLEAR     51  50  96 CALM      29.87R
$$

TXZ248>255-061100-
DEEP SOUTH TEXAS

CITY           SKY/WX    TMP DP  RH WIND       PRES   REMARKS
BROWNSVILLE    CLEAR     50  48  93 CALM      29.90S
PORT ISABEL    CLEAR     52  50  93 S6        29.89S
*SOUTH PADRE     N/A     59  55  88 SW6       29.90S
HARLINGEN      CLEAR     47  47 100 S6        29.88F WCI  44
*HEBBRONVILLE  CLEAR     50  48  92 W6        29.87R WCI  48
MCALLEN        CLEAR     52  49  89 SE3       29.89S
*WESLACO       CLEAR     50  49  95 S3        29.88S
FALFURRIAS     CLEAR     48  47  95 S3        29.87R
EDINBURG       CLEAR     50  48  92 CALM      29.88S FOG
*ZAPATA        NOT AVBL
$$

TXZ213>215-236>238-242>244-246-247-251-254-255-061100-
CMAN STATIONS

STATION/POSITION TIME  TEMP    WIND        PRES    WAVE
                       AIR SEA DIR/SP/G            HT/PER
                 (UTC) (F)     (DEG/KT/KT) (MB)    (FT/S)
SABINE PASS      0936   52 59  290/  3/  5 1011.6
SEA RIM ST PARK  1000   51     250/  4/  5 1011.2
NORTH JETTY/GLS  0936   54 60  280/  6/  7   N/A
EAGLE POINT      0936   49 58  300/  2/  4 1010.3
MORGANS POINT    0936   53 62  250/  5/  8 1010.4
PORT O`CONNOR    0942   58     210/  7/  9 1010.4
PORT ARANSAS     1000   58 64  250/  7/  8 1010.7
MALAQUITE BEACH  0948   57 64  200/  8/ 10 1011.7
BAFFIN BAY       0948   58 61  190/  9/ 10 1011.4
PORT ISABEL      0942   56 70  160/  4/  5 1012.3
$$

GMZ080-GMZ150>470-061100-
OFFSHORE BUOY REPORTS

STATION/POSITION TIME  TEMP    WIND        PRES    WAVE
                       AIR SEA DIR/SP/G            HT/PER
                 (UTC) (F)     (DEG/KT/KT) (MB)    (FT/S)
20 E GALVESTON   0950   58 66  280/ 14/ 17 1010.7    3/ 6
90 E PT ARANSAS  0950   70 77  270/ 14/ 16 1011.0    4/ 5
35 NE PT MANSFLD 0950   67 76  220/ 14/ 17 1011.2    3/ 7
200 E PT ISABEL  0950   72 78  310/ 14/ 17 1011.9    5/ 6
$$



USA.gov is the U.S. government's official web portal to all federal, state and local government web resources and services.